STARLINK-32172, 61518

Orbit data source: Space-Track

STARLINK-32172, 61518 is a payload satellite owned by SpaceX/Seattle (US) in LEO that was launched on Tue, 15 Oct 2024 UTC via an FALCON 9 launch vehicle from the Air Force Eastern Test Range (AFETR). Payload-class satellites include a variety of spacecraft equipped with specific instruments for various scientific and technological missions. These include communications satellites like Starlink; space stations such as the ISS; scientific satellites like the Hubble; Earth observation satellites from companies like Planet Labs, Umbra, and HawkEye 360; GPS; miniature CubeSats for education and research; and military/defense satellites.

Loading next visibility...
Identifier
61518, 2024-183K
Orbit
LEO
Country
Flag of USUS
Related business
Manufacturer
SpaceX/Seattle
Mission
Operational Commercial Communications
Bus & Motor
STARLINK V2M, Unknown motor
Mass
730 kg wet, ~700 kg dry
Launch date (UTC)
2024-10-15 (1 year ago)
Launch vehicle
FALCON 9
Launch site
Air Force Eastern Test Range (AFETR)
Object type
Payload
Rocket body
Debris
Shape & HBR
Box + 2 Pan, 17.7 m
Radar Cross Section
33.884 m², Large (>1 m²)

Expand to show TLE details & history
Last TLE update: 13 hours ago

TLE from 13 hours ago
0 STARLINK-32172
1 61518U 24183K   25346.82125648 -.00003406  00000-0 -10298-3 0  9993
2 61518  53.1591 185.8559 0000964  66.2363 293.8739 15.30188712 66350
Epoch: 2025-12-12T19:42Z
TLE epoch observation values (Epoch: 2025-12-12T19:42:36.559Z)
Latitude
-0.00002°
Longitude
168.44617°
Altitude
475.881 km
Speed
7.629 km/s
True Right ascension
12h 23m 25s
True Declination
0° 00' 00"
Sunlit
Object was in daylight at epoch
Visualization orbit readout
Latitude
Unknown
Longitude
Unknown
Altitude
Unknown
Speed
Unknown
Apparent Right ascension
Unknown
Apparent Declination
Unknown
Sunlit
N/A
Visualization observer readout
Local Sidereal Time
07:32:42
Azimuth
Unknown
Elevation
Unknown
Doppler factor
Unknown
Orbital elements
Apogee altitude
476.166 km
Perigee altitude
474.845 km
Semi-major axis
6,853.642 km
Eccentricity
0.0001
Inclination
53.1591°
RAAN
185.8559°
Arg. of periapsis
66.2363°
True anomaly
293.8638°
Mean anomaly
293.8739°
Eccentric anomaly
293.86885°
Mean motion
3.82526 °/min
Orbital period
94.11 mins
BSTAR
-0.00010298
Loading maneuver chart data...
Computing Atmospheric mass density...
Loading historical data...
Loading historical data...
Loading historical data...
Loading historical data...
Loading historical data...
Loading historical data...
Loading historical data...

Documentation

Showing up to 5 results
|